When you browse on this site, cookies collect data to enhance your experience and personalize the content and advertising you see.
Visit our Privacy Policy to learn more. By continuing to use the site, you agree to this use of cookies and data.
  • In Switzerland
  • List of Countries
  • For 7 days
  • Water Temperature
  • Weather Map
  • Weather Widgets
  • user-avatar
    Login

    Hourly Weather Meribel

    Today, 25 May, Monday

    Time Temperature Precipitation Wind Pressure Humidity
    00:00 +5°C° 0 mm 0 mps 638 mmHg 80%
    01:00 +5°C° 0 mm 0 mps 638 mmHg 79%
    02:00 +5°C° 0 mm 0 mps 638 mmHg 79%
    03:00 +5°C° 0 mm 0 mps 638 mmHg 78%
    04:00 +6°C° 0 mm 0 mps 638 mmHg 74%
    05:00 +8°C° 0 mm 0 mps 639 mmHg 69%
    06:00 +10°C° 0 mm 1 mps 640 mmHg 63%
    07:00 +12°C° 0 mm 1 mps 640 mmHg 59%
    08:00 +13°C° 0 mm 1 mps 641 mmHg 54%
    09:00 +15°C° 0 mm 2 mps 641 mmHg 50%
    10:00 +16°C° 0 mm 2 mps 641 mmHg 49%
    11:00 +16°C° 0 mm 2 mps 641 mmHg 48%
    12:00 +17°C° 0 mm 2 mps 641 mmHg 46%
    13:00 +17°C° 0 mm 2 mps 641 mmHg 49%
    14:00 +17°C° 0 mm 2 mps 640 mmHg 51%
    15:00 +17°C° 0 mm 3 mps 640 mmHg 53%
    16:00 +16°C° 0 mm 2 mps 640 mmHg 61%
    17:00 +15°C° 0 mm 2 mps 639 mmHg 69%
    18:00 +14°C° 0 mm 2 mps 639 mmHg 77%
    19:00 +12°C° 0 mm 1 mps 638 mmHg 83%
    20:00 +11°C° 0 mm 1 mps 638 mmHg 89%
    21:00 +9°C° 0 mm 1 mps 638 mmHg 94%
    22:00 +9°C° 0 mm 1 mps 638 mmHg 94%
    23:00 +8°C° 0 mm 1 mps 638 mmHg 93%

    Tomorrow, 26 May, Tuesday

    Time Temperature Precipitation Wind Pressure Humidity
    00:00 +7°C° 0 mm 0 mps 637 mmHg 93%
    01:00 +6°C° 0 mm 0 mps 637 mmHg 92%
    02:00 +6°C° 0 mm 0 mps 637 mmHg 91%
    03:00 +6°C° 0 mm 0 mps 637 mmHg 89%
    04:00 +7°C° 0 mm 0 mps 637 mmHg 84%
    05:00 +9°C° 0 mm 0 mps 638 mmHg 79%
    06:00 +10°C° 0 mm 0 mps 639 mmHg 74%
    07:00 +13°C° 0 mm 1 mps 639 mmHg 66%
    08:00 +14°C° 0 mm 1 mps 640 mmHg 57%
    09:00 +16°C° 0 mm 2 mps 641 mmHg 49%
    10:00 +17°C° 0 mm 2 mps 641 mmHg 48%
    11:00 +17°C° 0 mm 2 mps 641 mmHg 47%
    12:00 +18°C° 0 mm 2 mps 641 mmHg 46%
    13:00 +18°C° 0 mm 2 mps 641 mmHg 49%
    14:00 +17°C° 0 mm 2 mps 640 mmHg 52%
    15:00 +17°C° 0 mm 2 mps 640 mmHg 55%
    16:00 +16°C° 0 mm 2 mps 640 mmHg 62%
    17:00 +15°C° 0 mm 2 mps 639 mmHg 70%
    18:00 +13°C° 0 mm 2 mps 639 mmHg 77%
    19:00 +12°C° 0 mm 1 mps 639 mmHg 82%
    20:00 +11°C° 0 mm 1 mps 638 mmHg 87%
    21:00 +8°C° 0 mm 0 mps 638 mmHg 92%
    22:00 +8°C° 0 mm 0 mps 638 mmHg 92%
    23:00 +9°C° 0 mm 1 mps 638 mmHg 92%

    Day after tomorrow, 27 May, Wednesday

    Time Temperature Precipitation Wind Pressure Humidity
    00:00 +9°C° 0 mm 1 mps 638 mmHg 92%
    01:00 +8°C° 0 mm 1 mps 638 mmHg 92%
    02:00 +8°C° 0 mm 1 mps 638 mmHg 92%
    03:00 +8°C° 0 mm 1 mps 638 mmHg 93%
    04:00 +9°C° 0 mm 1 mps 639 mmHg 89%
    05:00 +10°C° 0 mm 1 mps 639 mmHg 86%
    06:00 +10°C° 0 mm 0 mps 640 mmHg 82%
    07:00 +12°C° 0 mm 1 mps 640 mmHg 78%
    08:00 +13°C° 0 mm 1 mps 641 mmHg 73%
    09:00 +14°C° 0 mm 2 mps 641 mmHg 69%
    10:00 +15°C° 0.2 mm 2 mps 641 mmHg 69%
    11:00 +15°C° 0.2 mm 2 mps 641 mmHg 69%
    12:00 +15°C° 0.2 mm 2 mps 641 mmHg 69%
    13:00 +15°C° 0.3 mm 2 mps 641 mmHg 72%
    14:00 +14°C° 0.3 mm 2 mps 640 mmHg 75%
    15:00 +14°C° 0.3 mm 2 mps 640 mmHg 77%
    16:00 +13°C° 0.3 mm 2 mps 640 mmHg 80%
    17:00 +13°C° 0.3 mm 2 mps 639 mmHg 82%
    18:00 +12°C° 0.3 mm 1 mps 639 mmHg 85%
    19:00 +11°C° 0 mm 1 mps 639 mmHg 87%
    20:00 +10°C° 0 mm 1 mps 638 mmHg 90%
    21:00 +8°C° 0 mm 1 mps 638 mmHg 92%
    22:00 +8°C° 0 mm 1 mps 638 mmHg 92%
    23:00 +8°C° 0 mm 1 mps 638 mmHg 91%

    28 May, Thursday

    Time Temperature Precipitation Wind Pressure Humidity
    00:00 +7°C° 0 mm 1 mps 638 mmHg 91%
    01:00 +6°C° 0 mm 0 mps 637 mmHg 90%
    02:00 +6°C° 0 mm 0 mps 637 mmHg 90%
    03:00 +5°C° 0 mm 0 mps 637 mmHg 90%
    04:00 +7°C° 0 mm 0 mps 637 mmHg 86%
    05:00 +8°C° 0 mm 0 mps 637 mmHg 82%
    06:00 +10°C° 0 mm 0 mps 638 mmHg 78%
    07:00 +11°C° 0 mm 0 mps 638 mmHg 71%
    08:00 +14°C° 0 mm 1 mps 638 mmHg 65%
    09:00 +15°C° 0 mm 2 mps 639 mmHg 58%
    10:00 +16°C° 0 mm 2 mps 639 mmHg 55%
    11:00 +17°C° 0 mm 2 mps 638 mmHg 51%
    12:00 +17°C° 0 mm 2 mps 638 mmHg 48%
    13:00 +17°C° 0.1 mm 2 mps 638 mmHg 48%
    14:00 +17°C° 0.1 mm 3 mps 637 mmHg 49%
    15:00 +17°C° 0.1 mm 3 mps 637 mmHg 50%
    16:00 +16°C° 0.1 mm 2 mps 637 mmHg 56%
    17:00 +14°C° 0.1 mm 2 mps 636 mmHg 62%
    18:00 +13°C° 0.1 mm 2 mps 636 mmHg 69%
    19:00 +12°C° 0 mm 1 mps 635 mmHg 74%
    20:00 +10°C° 0 mm 1 mps 634 mmHg 79%
    21:00 +8°C° 0 mm 1 mps 634 mmHg 85%
    22:00 +8°C° 0 mm 1 mps 634 mmHg 86%
    23:00 +8°C° 0 mm 1 mps 633 mmHg 86%

    29 May, Friday

    Time Temperature Precipitation Wind Pressure Humidity
    00:00 +7°C° 0 mm 1 mps 633 mmHg 87%
    01:00 +7°C° 0 mm 1 mps 633 mmHg 87%
    02:00 +7°C° 0 mm 1 mps 633 mmHg 88%
    03:00 +6°C° 0 mm 1 mps 632 mmHg 88%
    04:00 +7°C° 0 mm 0 mps 633 mmHg 83%
    05:00 +8°C° 0 mm 0 mps 633 mmHg 78%
    06:00 +10°C° 0 mm 0 mps 634 mmHg 74%
    07:00 +12°C° 0 mm 1 mps 634 mmHg 68%
    08:00 +13°C° 0 mm 1 mps 634 mmHg 62%
    09:00 +15°C° 0 mm 2 mps 635 mmHg 57%
    10:00 +15°C° 0 mm 2 mps 634 mmHg 55%
    11:00 +16°C° 0 mm 2 mps 634 mmHg 54%
    12:00 +16°C° 0 mm 3 mps 634 mmHg 52%
    13:00 +16°C° 0.2 mm 3 mps 633 mmHg 54%
    14:00 +16°C° 0.2 mm 3 mps 633 mmHg 56%
    15:00 +14°C° 0.2 mm 3 mps 633 mmHg 58%
    16:00 +14°C° 0.2 mm 2 mps 632 mmHg 63%
    17:00 +13°C° 0.2 mm 2 mps 632 mmHg 68%
    18:00 +12°C° 0.2 mm 2 mps 631 mmHg 73%
    19:00 +10°C° 0 mm 2 mps 631 mmHg 79%
    20:00 +9°C° 0 mm 1 mps 631 mmHg 86%
    21:00 +7°C° 0 mm 1 mps 630 mmHg 93%
    22:00 +7°C° 0 mm 1 mps 630 mmHg 93%
    23:00 +7°C° 0 mm 1 mps 630 mmHg 93%

    30 May, Saturday

    Time Temperature Precipitation Wind Pressure Humidity
    00:00 +6°C° 0 mm 1 mps 630 mmHg 93%
    01:00 +6°C° 0 mm 1 mps 630 mmHg 93%
    02:00 +6°C° 0 mm 1 mps 629 mmHg 92%
    03:00 +5°C° 0 mm 1 mps 629 mmHg 92%
    04:00 +6°C° 0 mm 1 mps 629 mmHg 86%
    05:00 +8°C° 0 mm 1 mps 630 mmHg 79%
    06:00 +9°C° 0 mm 1 mps 630 mmHg 73%
    07:00 +11°C° 0 mm 1 mps 631 mmHg 64%
    08:00 +12°C° 0 mm 1 mps 631 mmHg 56%
    09:00 +14°C° 0 mm 1 mps 632 mmHg 47%
    10:00 +15°C° 0 mm 2 mps 632 mmHg 45%
    11:00 +16°C° 0 mm 2 mps 633 mmHg 44%
    12:00 +17°C° 0 mm 2 mps 633 mmHg 42%
    13:00 +16°C° 0.1 mm 2 mps 633 mmHg 47%
    14:00 +16°C° 0.1 mm 2 mps 633 mmHg 52%
    15:00 +16°C° 0.1 mm 2 mps 633 mmHg 56%
    16:00 +15°C° 0.2 mm 2 mps 632 mmHg 63%
    17:00 +13°C° 0.2 mm 2 mps 632 mmHg 69%
    18:00 +12°C° 0.2 mm 1 mps 632 mmHg 76%
    19:00 +11°C° 0 mm 1 mps 632 mmHg 81%
    20:00 +9°C° 0 mm 1 mps 632 mmHg 86%
    21:00 +7°C° 0 mm 0 mps 631 mmHg 91%
    22:00 +6°C° 0 mm 0 mps 631 mmHg 91%
    23:00 +6°C° 0 mm 0 mps 631 mmHg 92%
    Show more